This demonstration page uses our WeatherBlox Daily Observations layout. Learn more.

Left ArrowRight Arrow

Hourly Observations for December 20, 2016

Temp ( °F °C ) Dew Point ( °F °C ) Humidity (%) Winds ( mph kmh ) Pressure ( in mb ) Visibility ( mi km ) Precip ( " mm )
12:00 am 00:00 Clear 12 -11 7 -14 79 79 S 6 9 30.65 1038 10 16 N/A
12:20 am 00:20 Clear 12 -11 7 -14 79 79 S 6 9 30.65 1038 10 16 N/A
12:39 am 00:39 Clear 12 -11 7 -14 79 79 S 5 7 30.65 1038 10 16 N/A
1:00 am 01:00 Clear 12 -11 7 -14 79 79 S 5 7 30.62 1037 10 16 N/A
1:20 am 01:20 Clear 12 -11 7 -14 79 79 S 6 9 30.62 1037 10 16 N/A
1:39 am 01:39 Clear 12 -11 7 -14 79 79 S 5 7 30.62 1037 10 16 N/A
1:59 am 01:59 Clear 12 -11 7 -14 79 79 S 3 6 30.62 1037 10 16 N/A
2:20 am 02:20 Clear 12 -11 7 -14 79 79 S 3 6 30.62 1037 10 16 N/A
2:39 am 02:39 Clear 12 -11 7 -14 79 79 S 5 7 30.62 1037 10 16 N/A
3:00 am 03:00 Clear 12 -11 7 -14 79 79 S 3 6 30.62 1037 10 16 N/A
3:20 am 03:20 Clear 12 -11 7 -14 79 79 S 5 7 30.62 1037 10 16 N/A
3:39 am 03:39 Clear 12 -11 7 -14 79 79 SSE 6 9 30.62 1037 10 16 N/A
4:00 am 04:00 Clear 12 -11 7 -14 79 79 S 5 7 30.59 1036 10 16 N/A
4:20 am 04:20 Clear 12 -11 9 -13 85 85 S 5 7 30.59 1036 10 16 N/A
4:39 am 04:39 Clear 12 -11 9 -13 85 85 S 7 11 30.56 1035 10 16 N/A
5:00 am 05:00 Clear 12 -11 9 -13 85 85 S 5 7 30.56 1035 10 16 N/A
5:20 am 05:20 Clear 14 -10 10 -12 85 85 S 7 11 30.56 1035 10 16 N/A
5:39 am 05:39 Clear 14 -10 10 -12 85 85 S 9 15 30.53 1034 10 16 N/A
6:00 am 06:00 Clear 14 -10 10 -12 85 85 S 8 13 30.53 1034 10 16 N/A
6:20 am 06:20 Clear 14 -10 10 -12 85 85 S 8 13 30.53 1034 10 16 N/A
6:39 am 06:39 Clear 12 -11 10 -12 92 92 S 7 11 30.53 1034 10 16 N/A
7:00 am 07:00 Clear 12 -11 10 -12 92 92 S 8 13 30.53 1034 10 16 N/A
7:20 am 07:20 Clear 14 -10 10 -12 85 85 S 7 11 30.53 1034 10 16 N/A
7:39 am 07:39 Clear 14 -10 10 -12 85 85 S 7 11 30.53 1034 10 16 N/A
8:00 am 08:00 Clear 14 -10 10 -12 85 85 SSW 7 11 30.53 1034 10 16 N/A
8:20 am 08:20 Sunny 14 -10 12 -11 92 92 S 7 11 30.53 1034 10 16 N/A
8:39 am 08:39 Sunny 14 -10 12 -11 92 92 S 6 9 30.53 1034 7 11 N/A
9:00 am 09:00 Sunny 16 -9 12 -11 86 86 S 8 13 30.50 1033 10 16 N/A
9:19 am 09:19 Sunny 18 -8 14 -10 86 86 S 13 20 30.48 1032 10 16 N/A
9:40 am 09:40 Sunny 19 -7 14 -10 79 79 SSW 12 19 30.48 1032 10 16 N/A
10:00 am 10:00 Sunny 19 -7 16 -9 86 86 SSW 15 24 30.48 1032 10 16 N/A
10:19 am 10:19 Sunny 21 -6 16 -9 80 80 SSW 13 20 30.48 1032 10 16 N/A
10:40 am 10:40 Sunny 21 -6 16 -9 80 80 SSW 15 24 30.48 1032 10 16 N/A
11:00 am 11:00 Sunny 23 -5 18 -8 80 80 SSW 14 22 30.45 1031 10 16 N/A
11:19 am 11:19 Sunny 25 -4 18 -8 74 74 SSW 14 22 30.45 1031 10 16 N/A
11:40 am 11:40 Sunny 25 -4 18 -8 74 74 SSW 15 24 30.42 1030 10 16 N/A
12:00 pm 12:00 Sunny 27 -3 18 -8 69 69 SW 13 20 30.42 1030 10 16 N/A
12:19 pm 12:19 Sunny 28 -2 18 -8 64 64 WSW 13 20 30.39 1029 10 16 N/A
12:40 pm 12:40 Sunny 28 -2 18 -8 64 64 SSW 12 19 30.36 1028 10 16 N/A
1:00 pm 13:00 Sunny 28 -2 18 -8 64 64 SSW 12 19 30.36 1028 10 16 N/A
1:19 pm 13:19 Sunny 30 -1 18 -8 59 59 S 9 15 30.33 1027 10 16 N/A
1:40 pm 13:40 Sunny 30 -1 18 -8 59 59 SSW 14 22 30.33 1027 10 16 N/A
2:00 pm 14:00 Sunny 32 undefined 18 -8 55 55 SSW 13 20 30.30 1026 10 16 N/A
2:19 pm 14:19 Sunny 32 undefined 18 -8 55 55 SSW 12 19 30.30 1026 10 16 N/A
2:40 pm 14:40 Sunny 32 undefined 18 -8 55 55 SSW 14 22 30.30 1026 10 16 N/A
3:00 pm 15:00 Sunny 32 undefined 18 -8 55 55 SSW 14 22 30.27 1025 10 16 N/A
3:20 pm 15:20 Sunny 34 1 19 -7 56 56 SSW 10 17 30.27 1025 10 16 N/A
3:40 pm 15:40 Sunny 32 undefined 19 -7 60 60 SSW 8 13 30.27 1025 10 16 N/A
3:59 pm 15:59 Sunny 34 1 19 -7 56 56 SSW 8 13 30.27 1025 10 16 N/A
4:20 pm 16:20 Sunny 32 undefined 19 -7 60 60 SSW 7 11 30.27 1025 10 16 N/A
4:40 pm 16:40 Sunny 32 undefined 19 -7 60 60 SSW 6 9 30.27 1025 10 16 N/A
4:59 pm 16:59 Sunny 32 undefined 19 -7 60 60 SSW 9 15 30.27 1025 10 16 N/A
5:20 pm 17:20 Sunny 32 undefined 18 -8 55 55 SSW 7 11 30.27 1025 10 16 N/A
5:40 pm 17:40 Clear 30 -1 18 -8 59 59 SW 6 9 30.27 1025 10 16 N/A
5:59 pm 17:59 Clear 30 -1 18 -8 59 59 SW 6 9 30.27 1025 10 16 N/A
6:20 pm 18:20 Clear 28 -2 16 -9 59 59 SW 7 11 30.27 1025 10 16 N/A
6:40 pm 18:40 Clear 30 -1 16 -9 55 55 SW 10 17 30.27 1025 10 16 N/A
6:59 pm 18:59 Clear 30 -1 16 -9 55 55 WSW 9 15 30.27 1025 10 16 N/A
7:20 pm 19:20 Clear 30 -1 18 -8 59 59 SW 9 15 30.27 1025 10 16 N/A
7:40 pm 19:40 Clear 30 -1 18 -8 59 59 SW 6 9 30.27 1025 10 16 N/A
7:59 pm 19:59 Clear 28 -2 18 -8 64 64 SW 6 9 30.27 1025 10 16 N/A
8:20 pm 20:20 Clear 28 -2 18 -8 64 64 SSW 5 7 30.27 1025 10 16 N/A
8:40 pm 20:40 Clear 28 -2 18 -8 64 64 SSW 6 9 30.27 1025 10 16 N/A
8:59 pm 20:59 Clear 28 -2 18 -8 64 64 SSW 6 9 30.27 1025 10 16 N/A
9:20 pm 21:20 Clear 27 -3 18 -8 69 69 SW 5 7 30.27 1025 10 16 N/A
9:40 pm 21:40 Clear 25 -4 18 -8 74 74 N N/A 30.30 1026 10 16 N/A
9:59 pm 21:59 Clear 25 -4 18 -8 74 74 SSW 5 7 30.30 1026 10 16 N/A
10:20 pm 22:20 Clear 23 -5 18 -8 80 80 SSW 7 11 30.30 1026 10 16 N/A
10:39 pm 22:39 Clear 25 -4 18 -8 74 74 SSW 6 9 30.30 1026 10 16 N/A
11:00 pm 23:00 Clear 25 -4 18 -8 74 74 SSW 5 7 30.30 1026 10 16 N/A
11:20 pm 23:20 Clear 23 -5 18 -8 80 80 SSW 3 6 30.30 1026 10 16 N/A
11:39 pm 23:39 Clear 23 -5 18 -8 80 80 S 3 6 30.30 1026 10 16 N/A

Powered by AerisWeather